QPF
0.00 0.00 0.00 0.00 0.00 0.00 0.00 0.00 0.00 0.00 0.00 0.00 0.00 0.00 0.00 0.00 0.00 0.00 0.00 0.00 0.00 0.00 0.00 0.00 0.00 0.00 0.00 0.00 0.00 0.00 0.00 0.00 0.00 0.00 0.00 0.00 0.00 0.00 0.00 0.00 0.00 0.00 0.00 0.00 0.00 0.00 0.00 0.00 0.00
0.00 0.00 0.00 0.00 0.00 0.00 0.00 0.00 0.00 0.00 0.00 0.00 0.00 0.00 0.00 0.00 0.00 0.00 0.00 0.00 0.00 0.00 0.00 0.00 0.00 0.00 0.00 0.00 0.00 0.00 0.00 0.00 0.00 0.00 0.01 0.00 0.00 0.00 0.00 0.00 0.00 0.00 0.00 0.00 0.00 0.00 0.00 0.00 0.00
0.00 0.00 0.00 0.00 0.00 0.00 0.00 0.00 0.00 0.00 0.00 0.00 0.00 0.00 0.00 0.00 0.00 0.00 0.00 0.00 0.00 0.00 0.00 0.00 0.00 0.00 0.00 0.00 0.00 0.00 0.00 0.00 0.01 0.00 0.00 0.00 0.00 0.00 0.00 0.00 0.00 0.00 0.00 0.00 0.00 0.00 0.00 0.00 0.00
0.00 0.00 0.00 0.00 0.00 0.00 0.00 0.00 0.00 0.00 0.00 0.00 0.00 0.00 0.00 0.00 0.00 0.00 0.00 0.00 0.00 0.00 0.00 0.00 0.00 0.00 0.00 0.00 0.00 0.00 0.00 0.00 0.00 0.00 0.00 0.00 0.00 0.00 0.00 0.00 0.00 0.00 0.00 0.00 0.00 0.00 0.00 0.00 0.00
0.00 0.00 0.00 0.00 0.00 0.00 0.00 0.00 0.00 0.00 0.00 0.00 0.00 0.00 0.00 0.00 0.00 0.00 0.00 0.00 0.00 0.00 0.00 0.00 0.00 0.00 0.00 0.00 0.00 0.00 0.00 0.00 0.00 0.00 0.00 0.00 0.00 0.00 0.00 0.00 0.00 0.00 0.00 0.00 0.00 0.00 0.00 0.00 0.00
0.00 0.00 0.00 0.00 0.00 0.00 0.00 0.00 0.00 0.00 0.00 0.00 0.00 0.00 0.00 0.00 0.00 0.00 0.00 0.00 0.00 0.00 0.00 0.00 0.00 0.00 0.00 0.00 0.00 0.00 0.00 0.00 0.00 0.00 0.00 0.00 0.00 0.00 0.00 0.00 0.00 0.00 0.00 0.00 0.00 0.00 0.00 0.00 0.00
0.00 0.00 0.00 0.00 0.00 0.00 0.00 0.00 0.00 0.00 0.00 0.00 0.00 0.00 0.00 0.00 0.00 0.00 0.00 0.00 0.00 0.00 0.00 0.00 0.00 0.00 0.00 0.00 0.00 0.00 0.00 0.00 0.00 0.00 0.00 0.00 0.00 0.00 0.00 0.00 0.00 0.00 0.00 0.00 0.00 0.00 0.00 0.00 0.00
0.00 0.00 0.00 0.00 0.00 0.00 0.00 0.00 0.00 0.00 0.00 0.00 0.00 0.00 0.00 0.00 0.00 0.00 0.00 0.00 0.00 0.00 0.00 0.00 0.00 0.00 0.00 0.00 0.00 0.00 0.00 0.00 0.00 0.00 0.00 0.00 0.00 0.00 0.00 0.00 0.00 0.00 0.00 0.00 0.00 0.00 0.00 0.00 0.00
0.00 0.00 0.00 0.00 0.00 0.00 0.00 0.00 0.00 0.00 0.00 0.00 0.00 0.00 0.00 0.00 0.00 0.00 0.00 0.00 0.00 0.00 0.00 0.00 0.00 0.00 0.00 0.00 0.00 0.00 0.00 0.00 0.00 0.00 0.00 0.00 0.00 0.00 0.00 0.00 0.00 0.00 0.00 0.00 0.00 0.00 0.00 0.00 0.00
0.00 0.00 0.00 0.00 0.00 0.00 0.00 0.00 0.00 0.00 0.00 0.00 0.00 0.00 0.00 0.00 0.00 0.00 0.00 0.00 0.00 0.00 0.00 0.00 0.00 0.00 0.00 0.00 0.00 0.00 0.00 0.00 0.00 0.00 0.00 0.00 0.00 0.00 0.00 0.00 0.00 0.00 0.00 0.00 0.00 0.00 0.00 0.00 0.00
0.00 0.00 0.00 0.00 0.00 0.00 0.00 0.00 0.00 0.00 0.00 0.00 0.00 0.00 0.00 0.00 0.00 0.00 0.00 0.00 0.00 0.00 0.00 0.00 0.00 0.00 0.00 0.00 0.00 0.00 0.00 0.00 0.00 0.00 0.00 0.00 0.00 0.00 0.00 0.00 0.00 0.00 0.00 0.00 0.00 0.00 0.00 0.00 0.00
0.00 0.00 0.00 0.00 0.00 0.00 0.00 0.00 0.00 0.00 0.00 0.00 0.00 0.00 0.00 0.00 0.00 0.00 0.00 0.00 0.00 0.00 0.00 0.00 0.00 0.00 0.00 0.00 0.00 0.00 0.00 0.00 0.00 0.00 0.00 0.00 0.00 0.00 0.00 0.00 0.00 0.00 0.00 0.00 0.00 0.00 0.00 0.00 0.00
0.00 0.00 0.00 0.00 0.00 0.00 0.00 0.00 0.00 0.00 0.00 0.00 0.00 0.00 0.00 0.00 0.00 0.00 0.00 0.00 0.00 0.00 0.00 0.00 0.00 0.00 0.00 0.00 0.00 0.00 0.00 0.00 0.00 0.00 0.00 0.00 0.00 0.00 0.00 0.00 0.00 0.00 0.00 0.00 0.00 0.00 0.00 0.00 0.00
0.00 0.00 0.00 0.00 0.00 0.00 0.00 0.00 0.00 0.00 0.00 0.00 0.00 0.00 0.00 0.00 0.00 0.00 0.00 0.00 0.00 0.00 0.00 0.00 0.00 0.00 0.00 0.00 0.00 0.00 0.00 0.00 0.00 0.00 0.00 0.00 0.00 0.00 0.00 0.00 0.00 0.00 0.00 0.00 0.00 0.00 0.00 0.00 0.00
0.00 0.00 0.00 0.00 0.00 0.00 0.00 0.00 0.00 0.00 0.00 0.00 0.00 0.00 0.00 0.00 0.00 0.00 0.00 0.00 0.00 0.00 0.00 0.00 0.00 0.00 0.00 0.00 0.00 0.00 0.00 0.00 0.00 0.00 0.00 0.00 0.00 0.00 0.00 0.00 0.00 0.00 0.00 0.00 0.00 0.00 0.00 0.00 0.00
0.00 0.00 0.00 0.00 0.00 0.00 0.00 0.00 0.00 0.00 0.00 0.00 0.00 0.00 0.00 0.00 0.00 0.00 0.00 0.00 0.00 0.00 0.00 0.00 0.00 0.00 0.00 0.00 0.00 0.00 0.01 0.00 0.00 0.00 0.00 0.00 0.00 0.00 0.00 0.00 0.00 0.00 0.00 0.00 0.00 0.00 0.00 0.00 0.00
0.00 0.00 0.00 0.00 0.00 0.00 0.00 0.00 0.00 0.00 0.00 0.00 0.00 0.00 0.00 0.00 0.00 0.00 0.00 0.00 0.00 0.00 0.00 0.00 0.00 0.00 0.00 0.01 0.01 0.03 0.03 0.01 0.00 0.00 0.00 0.00 0.00 0.00 0.00 0.00 0.00 0.00 0.00 0.00 0.00 0.00 0.00 0.00 0.00
0.00 0.00 0.00 0.00 0.00 0.00 0.00 0.00 0.00 0.00 0.00 0.00 0.00 0.00 0.00 0.00 0.00 0.00 0.00 0.00 0.00 0.00 0.00 0.00 0.00 0.00 0.00 0.03 0.05 0.05 0.02 0.01 0.00 0.00 0.00 0.00 0.00 0.00 0.00 0.00 0.00 0.00 0.00 0.00 0.00 0.00 0.00 0.00 0.00
0.00 0.00 0.00 0.00 0.00 0.00 0.00 0.00 0.00 0.00 0.00 0.00 0.00 0.00 0.00 0.00 0.00 0.00 0.00 0.00 0.00 0.00 0.00 0.00 0.00 0.02 0.04 0.05 0.08 0.05 0.02 0.01 0.00 0.00 0.00 0.00 0.00 0.00 0.00 0.00 0.00 0.00 0.00 0.00 0.00 0.00 0.00 0.00 0.00
0.00 0.00 0.00 0.00 0.00 0.00 0.00 0.00 0.00 0.00 0.00 0.00 0.00 0.00 0.00 0.00 0.00 0.00 0.00 0.00 0.00 0.00 0.00 0.00 0.05 0.17 0.28 0.24 0.28 0.22 0.13 0.08 0.00 0.00 0.00 0.00 0.00 0.00 0.00 0.00 0.00 0.00 0.00 0.00 0.00 0.00 0.00 0.00 0.00
0.00 0.00 0.00 0.00 0.00 0.00 0.00 0.00 0.00 0.00 0.00 0.00 0.00 0.00 0.00 0.00 0.00 0.00 0.00 0.00 0.00 0.00 0.00 0.00 0.21 0.35 0.36 0.30 0.28 0.23 0.14 0.05 0.00 0.00 0.00 0.00 0.00 0.00 0.00 0.00 0.00 0.00 0.00 0.00 0.00 0.00 0.00 0.00 0.00
0.00 0.00 0.00 0.00 0.00 0.00 0.00 0.00 0.00 0.00 0.00 0.00 0.00 0.00 0.00 0.00 0.00 0.00 0.00 0.00 0.00 0.01 0.12 0.38 0.45 0.29 0.22 0.14 0.11 0.13 0.14 0.08 0.00 0.00 0.00 0.00 0.00 0.00 0.00 0.00 0.00 0.00 0.00 0.00 0.00 0.00 0.00 0.00 0.00
0.00 0.00 0.00 0.00 0.00 0.00 0.00 0.00 0.00 0.00 0.00 0.00 0.00 0.00 0.00 0.00 0.00 0.00 0.00 0.00 0.00 0.02 0.14 0.34 0.19 0.11 0.09 0.04 0.04 0.10 0.13 0.05 0.00 0.00 0.00 0.00 0.00 0.00 0.00 0.00 0.00 0.00 0.00 0.00 0.00 0.00 0.00 0.00 0.00
0.00 0.00 0.00 0.00 0.00 0.00 0.00 0.00 0.00 0.00 0.00 0.00 0.00 0.00 0.00 0.00 0.00 0.00 0.00 0.00 0.02 0.01 0.05 0.06 0.06 0.02 0.03 0.01 0.03 0.06 0.05 0.03 0.01 0.00 0.00 0.00 0.00 0.00 0.00 0.00 0.00 0.00 0.00 0.00 0.00 0.00 0.00 0.00 0.00
0.00 0.00 0.00 0.00 0.00 0.00 0.00 0.00 0.00 0.00 0.00 0.00 0.00 0.00 0.00 0.00 0.00 0.00 0.00 0.00 0.00 0.01 0.00 0.00 0.00 0.01 0.04 0.05 0.08 0.04 0.03 0.02 0.01 0.00 0.00 0.00 0.00 0.00 0.00 0.00 0.00 0.00 0.00 0.00 0.00 0.00 0.00 0.00 0.00
0.00 0.00 0.00 0.00 0.00 0.00 0.00 0.00 0.00 0.00 0.00 0.00 0.00 0.00 0.00 0.00 0.00 0.00 0.00 0.00 0.01 0.01 0.01 0.00 0.00 0.01 0.02 0.08 0.16 0.09 0.05 0.01 0.00 0.00 0.00 0.00 0.00 0.00 0.00 0.00 0.00 0.00 0.00 0.00 0.00 0.00 0.00 0.00 0.00
0.00 0.00 0.00 0.00 0.00 0.00 0.00 0.00 0.00 0.00 0.00 0.00 0.00 0.00 0.00 0.00 0.00 0.00 0.00 0.00 0.01 0.02 0.01 0.00 0.00 0.02 0.04 0.04 0.03 0.04 0.04 0.01 0.00 0.00 0.00 0.00 0.00 0.00 0.00 0.00 0.00 0.00 0.00 0.00 0.00 0.00 0.00 0.00 0.00
0.00 0.00 0.00 0.00 0.00 0.00 0.00 0.00 0.00 0.00 0.00 0.00 0.00 0.00 0.00 0.00 0.00 0.00 0.00 0.00 0.00 0.00 0.00 0.00 0.00 0.02 0.02 0.00 0.01 0.03 0.03 0.01 0.00 0.00 0.00 0.00 0.00 0.00 0.00 0.00 0.00 0.00 0.00 0.00 0.00 0.00 0.00 0.00 0.00
0.00 0.00 0.00 0.00 0.00 0.00 0.00 0.00 0.00 0.00 0.00 0.00 0.00 0.00 0.00 0.00 0.00 0.00 0.00 0.00 0.00 0.00 0.00 0.00 0.00 0.00 0.00 0.00 0.00 0.01 0.01 0.02 0.00 0.00 0.00 0.00 0.00 0.00 0.00 0.00 0.00 0.00 0.00 0.00 0.00 0.00 0.00 0.00 0.00
0.00 0.00 0.00 0.00 0.00 0.00 0.00 0.00 0.00 0.00 0.00 0.00 0.00 0.00 0.00 0.00 0.00 0.00 0.00 0.00 0.00 0.00 0.00 0.00 0.00 0.00 0.00 0.00 0.00 0.00 0.01 0.01 0.02 0.00 0.00 0.00 0.00 0.00 0.00 0.00 0.00 0.00 0.00 0.00 0.00 0.00 0.00 0.00 0.00
MSLP
1011.11 1011.35 1011.49 1011.92 1013.17 1013.56 1013.24 1012.55 1011.91 1011.50 1011.08 1010.55 1010.54 1011.15 1011.72 1012.31 1012.96 1014.15 1013.80 1013.86 1013.93 1014.15 1014.43 1014.71 1014.92 1015.00 1015.22 1015.54 1015.73 1015.80 1015.95 1016.09 1016.21 1016.38 1016.47 1016.54 1016.62 1016.65 1016.75 1016.78 1016.75 1016.66 1016.60 1016.60 1016.57 1016.48 1016.41 1016.32 1016.26
1011.26 1011.45 1011.76 1012.61 1013.60 1014.10 1013.30 1012.33 1011.67 1011.16 1010.69 1010.44 1010.60 1011.10 1011.72 1012.44 1012.88 1013.50 1013.79 1013.88 1013.87 1014.26 1014.62 1014.87 1015.11 1015.21 1015.40 1015.72 1015.87 1016.10 1016.19 1016.34 1016.51 1016.64 1016.75 1016.84 1017.07 1017.05 1017.09 1017.08 1017.05 1016.97 1016.94 1016.87 1016.82 1016.87 1016.69 1016.61 1016.41
1011.18 1011.37 1012.50 1013.41 1014.27 1013.94 1012.86 1011.82 1010.91 1010.64 1010.54 1010.48 1010.69 1011.11 1011.91 1012.58 1013.04 1013.36 1013.49 1013.88 1014.03 1014.47 1014.71 1014.89 1014.97 1015.28 1015.61 1015.86 1016.00 1016.24 1016.38 1016.48 1016.74 1016.92 1017.07 1017.23 1017.43 1017.48 1017.46 1017.38 1017.40 1017.29 1017.17 1017.05 1017.06 1017.02 1016.94 1016.78 1016.54
1011.49 1012.11 1013.44 1013.65 1013.81 1013.05 1012.18 1011.13 1010.55 1010.48 1010.45 1010.43 1010.86 1011.82 1012.23 1012.49 1012.91 1013.20 1013.53 1013.82 1014.21 1014.58 1014.61 1014.69 1015.16 1015.43 1015.75 1015.91 1016.08 1016.38 1016.43 1016.70 1016.90 1017.07 1017.27 1017.45 1017.54 1017.67 1017.74 1017.68 1017.55 1017.46 1017.36 1017.22 1017.14 1017.13 1016.98 1016.78 1016.65
1012.08 1012.90 1013.75 1014.04 1013.42 1012.44 1011.30 1010.62 1010.18 1010.17 1010.21 1010.60 1010.86 1011.97 1012.65 1012.86 1012.97 1013.48 1013.77 1014.10 1014.30 1014.76 1014.81 1014.92 1015.20 1015.50 1015.73 1016.00 1016.12 1016.46 1016.70 1016.96 1017.06 1017.27 1017.51 1017.64 1017.69 1017.77 1017.83 1017.87 1017.76 1017.55 1017.53 1017.36 1017.29 1017.18 1017.12 1016.96 1016.77
1012.65 1013.31 1014.06 1014.15 1013.06 1011.75 1010.71 1010.20 1009.93 1009.82 1009.96 1010.43 1010.87 1011.73 1012.85 1013.09 1013.18 1013.61 1013.84 1014.35 1014.41 1014.76 1014.93 1015.14 1015.12 1015.25 1015.62 1015.97 1016.18 1016.56 1016.94 1017.20 1017.32 1017.51 1017.75 1017.76 1017.85 1017.96 1018.00 1017.95 1017.83 1017.63 1017.62 1017.52 1017.43 1017.37 1017.32 1017.14 1016.97
1012.73 1013.48 1013.93 1013.73 1012.75 1011.47 1010.63 1010.04 1009.80 1009.33 1009.77 1010.20 1010.79 1012.06 1013.24 1013.40 1013.29 1013.48 1013.87 1014.28 1014.62 1014.96 1015.16 1015.29 1015.58 1015.57 1015.69 1016.11 1016.48 1016.88 1017.17 1017.39 1017.63 1017.80 1017.96 1017.98 1018.01 1018.02 1018.05 1018.02 1017.89 1017.91 1017.77 1017.73 1017.66 1017.56 1017.52 1017.43 1017.36
1012.41 1013.26 1013.76 1013.19 1012.36 1011.30 1010.59 1009.99 1009.78 1009.80 1009.91 1010.01 1010.41 1011.70 1012.65 1012.54 1013.11 1013.76 1014.30 1014.65 1014.89 1015.08 1015.23 1015.58 1015.88 1016.24 1016.45 1016.40 1016.75 1017.12 1017.36 1017.59 1017.80 1018.00 1018.25 1018.44 1018.52 1018.26 1018.08 1018.09 1018.09 1018.05 1018.04 1018.07 1017.86 1017.85 1017.76 1017.66 1017.62
1011.96 1013.16 1013.68 1012.60 1011.86 1011.01 1010.36 1009.88 1009.92 1009.87 1009.69 1009.98 1010.13 1010.68 1010.89 1012.03 1013.29 1013.90 1014.50 1014.93 1015.18 1015.29 1015.47 1015.64 1015.88 1016.25 1016.71 1016.86 1016.95 1017.33 1017.69 1017.89 1018.08 1018.11 1018.50 1018.74 1018.81 1018.71 1018.55 1018.39 1018.29 1018.34 1018.38 1018.25 1018.06 1018.14 1018.10 1018.03 1017.95
1012.05 1012.99 1012.77 1011.42 1011.00 1010.71 1010.17 1009.97 1009.94 1009.89 1009.58 1009.87 1010.05 1010.38 1011.26 1012.10 1012.96 1013.52 1013.98 1014.51 1015.00 1015.27 1015.58 1016.15 1016.20 1016.62 1016.90 1017.00 1017.37 1017.73 1017.95 1018.31 1018.36 1018.49 1018.68 1018.86 1018.93 1018.85 1018.86 1018.78 1018.78 1018.73 1018.66 1018.48 1018.44 1018.58 1018.44 1018.38 1018.43
1011.98 1012.11 1011.56 1010.72 1010.56 1010.35 1010.17 1009.69 1009.66 1009.56 1009.55 1008.67 1009.80 1010.47 1011.37 1012.10 1012.95 1013.38 1013.77 1014.00 1014.29 1014.94 1015.69 1016.04 1016.34 1016.64 1017.01 1017.23 1017.55 1017.76 1017.96 1018.24 1018.41 1018.53 1018.76 1018.97 1019.13 1019.18 1019.35 1019.36 1019.40 1019.32 1019.05 1018.97 1019.04 1019.13 1018.95 1018.97 1018.89
1011.75 1011.11 1010.88 1010.27 1009.88 1010.15 1009.95 1009.31 1009.51 1009.10 1008.28 1008.40 1008.77 1009.65 1010.72 1011.76 1012.31 1012.83 1013.38 1014.12 1014.90 1015.14 1015.45 1015.91 1016.13 1016.41 1016.68 1017.01 1017.37 1017.74 1018.06 1018.47 1018.71 1018.74 1018.83 1018.80 1019.15 1019.49 1019.63 1019.70 1019.73 1019.67 1019.39 1019.32 1019.43 1019.52 1019.47 1019.37 1019.25
1011.22 1010.69 1010.28 1009.76 1009.64 1009.78 1009.35 1009.03 1009.11 1008.63 1008.18 1008.57 1009.08 1010.16 1010.67 1011.30 1011.99 1012.78 1013.11 1013.71 1014.46 1015.02 1015.05 1015.48 1015.75 1016.25 1016.62 1016.98 1017.49 1018.06 1018.39 1018.68 1018.91 1019.14 1019.18 1019.04 1019.21 1019.63 1019.82 1019.83 1019.84 1019.88 1019.69 1019.67 1019.67 1019.73 1019.72 1019.66 1019.48
1010.51 1010.38 1009.93 1009.36 1009.05 1009.06 1009.17 1009.16 1009.19 1007.76 1008.33 1008.96 1009.28 1009.87 1010.58 1011.19 1011.70 1012.37 1012.97 1013.39 1013.83 1014.28 1014.77 1015.14 1015.66 1015.94 1016.53 1016.94 1017.42 1017.81 1018.31 1018.68 1018.88 1019.16 1019.36 1019.45 1019.52 1019.81 1020.14 1020.29 1020.20 1020.15 1020.04 1019.93 1019.96 1019.92 1019.93 1019.84 1019.83
1010.46 1010.52 1009.69 1009.17 1008.81 1008.72 1008.76 1009.27 1009.00 1008.00 1008.43 1009.03 1009.43 1009.71 1010.39 1011.07 1011.44 1011.33 1012.12 1012.99 1013.20 1013.53 1014.19 1014.76 1015.50 1015.74 1016.24 1016.54 1016.97 1017.61 1018.08 1018.56 1018.83 1019.28 1019.42 1019.72 1019.90 1020.12 1020.40 1020.65 1020.65 1020.52 1020.23 1020.28 1020.24 1020.17 1020.00 1020.04 1020.20
1010.83 1010.79 1010.42 1009.15 1008.91 1008.59 1008.93 1008.91 1007.75 1008.01 1008.62 1009.19 1009.46 1009.62 1010.19 1010.59 1010.84 1011.36 1011.81 1012.46 1013.09 1013.74 1014.48 1015.19 1015.24 1015.40 1015.67 1016.36 1017.14 1017.81 1018.18 1018.46 1018.86 1019.25 1019.44 1019.72 1020.03 1020.42 1020.75 1020.83 1021.08 1020.98 1020.82 1020.68 1020.49 1020.35 1020.32 1020.54 1020.63
1011.73 1011.46 1010.92 1009.89 1008.96 1009.26 1009.63 1009.56 1009.03 1009.00 1008.76 1009.22 1009.60 1009.52 1009.87 1010.17 1010.55 1010.55 1011.15 1011.84 1012.61 1013.25 1014.05 1014.92 1015.12 1015.47 1016.13 1016.69 1017.26 1018.23 1018.58 1018.71 1018.97 1019.36 1019.33 1019.59 1020.02 1020.50 1021.04 1021.29 1021.37 1021.24 1021.23 1021.08 1020.69 1020.78 1020.62 1020.91 1020.88
1011.92 1011.64 1011.10 1010.68 1009.67 1010.04 1010.55 1010.99 1010.50 1009.96 1010.37 1011.04 1010.85 1010.21 1009.86 1009.85 1009.43 1010.98 1011.35 1012.05 1012.79 1013.29 1013.92 1014.27 1015.03 1015.79 1016.17 1016.82 1017.19 1017.82 1018.52 1019.06 1019.28 1019.45 1019.51 1019.65 1020.05 1020.43 1020.91 1021.54 1021.69 1021.62 1021.54 1021.44 1021.27 1021.37 1021.12 1021.07 1020.87
1011.21 1011.42 1011.37 1010.15 1010.12 1010.62 1011.59 1011.21 1011.24 1010.88 1010.99 1011.28 1011.50 1011.37 1010.88 1011.19 1011.73 1012.31 1012.73 1012.84 1013.25 1013.78 1014.32 1015.18 1016.05 1016.86 1017.09 1017.53 1018.51 1019.11 1018.60 1019.22 1019.62 1019.57 1019.91 1020.01 1020.34 1020.45 1020.77 1021.62 1021.91 1022.10 1021.81 1021.79 1021.72 1021.73 1021.86 1021.66 1021.35
1010.68 1010.78 1010.70 1010.19 1010.31 1010.72 1011.46 1011.96 1011.70 1011.27 1011.38 1011.46 1011.62 1011.50 1011.03 1011.11 1012.23 1012.46 1012.90 1013.21 1013.79 1014.65 1015.60 1016.09 1016.81 1017.60 1018.19 1018.27 1019.02 1019.33 1020.24 1020.36 1019.82 1019.45 1019.92 1020.10 1020.36 1020.71 1021.04 1021.34 1022.19 1022.16 1022.35 1022.25 1022.06 1021.92 1022.10 1022.32 1022.08
1010.32 1010.27 1010.32 1010.41 1010.64 1011.24 1011.91 1012.79 1012.52 1011.82 1011.53 1011.30 1010.95 1010.65 1010.32 1010.73 1011.94 1012.34 1012.60 1013.25 1013.96 1014.78 1015.43 1016.04 1016.86 1017.62 1018.58 1019.02 1018.79 1019.01 1020.00 1020.70 1020.97 1020.35 1020.49 1020.52 1020.50 1020.62 1021.11 1021.69 1022.21 1022.50 1022.59 1022.87 1022.49 1022.04 1021.83 1022.33 1022.44
1009.68 1009.59 1010.14 1010.51 1011.23 1012.23 1012.68 1014.15 1013.40 1012.69 1012.10 1011.54 1011.21 1010.79 1010.48 1010.80 1010.78 1011.74 1012.22 1012.80 1013.66 1014.61 1015.20 1015.29 1015.82 1015.88 1017.76 1018.13 1018.78 1018.60 1018.84 1020.55 1020.71 1020.80 1020.68 1020.91 1020.67 1020.96 1021.19 1021.81 1022.30 1022.76 1022.96 1023.09 1022.90 1022.37 1022.12 1022.22 1022.54
1009.44 1009.66 1010.42 1011.11 1012.06 1012.77 1013.57 1014.17 1013.63 1013.20 1012.73 1011.91 1011.37 1011.12 1010.60 1010.62 1011.43 1011.92 1012.43 1013.19 1014.15 1014.96 1015.47 1015.76 1014.62 1015.58 1016.98 1017.74 1018.78 1017.29 1018.21 1019.72 1020.15 1020.81 1021.21 1021.39 1021.11 1021.09 1021.34 1021.84 1022.22 1022.89 1023.33 1023.24 1023.27 1022.52 1022.46 1022.27 1022.70
1009.45 1010.27 1011.57 1012.54 1013.27 1014.20 1014.30 1014.53 1014.22 1013.81 1013.16 1012.42 1011.83 1012.03 1011.98 1011.83 1012.31 1012.66 1013.05 1013.03 1012.95 1013.24 1013.75 1015.41 1015.23 1015.43 1015.24 1017.20 1017.57 1017.38 1017.26 1019.28 1020.00 1020.68 1021.19 1021.38 1021.59 1021.71 1021.81 1022.10 1022.23 1022.91 1023.45 1023.31 1023.64 1022.86 1022.63 1022.63 1022.82
1009.89 1011.45 1013.15 1014.30 1014.98 1015.29 1014.76 1014.75 1013.83 1012.99 1012.64 1012.59 1012.71 1012.89 1013.24 1012.86 1012.59 1013.00 1013.40 1013.15 1012.50 1012.13 1011.57 1013.13 1015.41 1015.40 1016.08 1017.10 1017.53 1017.49 1018.02 1018.90 1019.48 1020.09 1020.46 1021.23 1021.61 1022.07 1021.98 1022.15 1022.50 1022.85 1023.08 1023.45 1023.54 1023.05 1022.89 1022.79 1022.90
1011.21 1012.19 1013.61 1015.03 1016.12 1015.78 1015.14 1014.79 1013.59 1012.75 1012.58 1012.50 1012.39 1012.68 1013.49 1013.38 1013.45 1013.58 1013.66 1013.79 1013.70 1013.58 1013.23 1013.96 1014.44 1015.23 1015.55 1016.37 1016.84 1016.85 1017.46 1018.37 1018.84 1019.48 1019.82 1020.68 1021.19 1021.60 1021.73 1021.95 1022.59 1022.73 1022.87 1023.54 1023.29 1023.18 1023.06 1022.88 1022.89
1011.75 1012.94 1013.81 1015.10 1016.37 1016.33 1015.74 1014.66 1013.24 1012.56 1012.67 1012.82 1012.67 1012.73 1013.27 1013.73 1013.74 1013.76 1013.92 1014.13 1014.04 1013.94 1013.51 1013.87 1014.38 1014.47 1014.99 1015.71 1016.37 1016.72 1017.27 1018.18 1018.56 1019.11 1020.00 1020.71 1021.03 1021.38 1021.65 1021.92 1022.24 1022.43 1022.90 1022.90 1023.05 1023.23 1023.14 1022.96 1022.98
1012.14 1013.55 1014.50 1015.53 1016.80 1017.13 1016.23 1015.29 1014.23 1013.23 1012.96 1013.12 1013.01 1013.12 1013.51 1013.62 1013.69 1013.47 1013.59 1013.76 1013.81 1013.88 1014.02 1013.87 1013.98 1014.36 1014.73 1015.32 1015.88 1016.35 1016.90 1017.55 1018.34 1018.98 1019.63 1020.20 1020.83 1021.26 1021.63 1021.86 1021.96 1022.34 1022.53 1022.29 1022.62 1023.07 1023.13 1023.03 1023.02
1013.38 1014.20 1015.43 1016.43 1017.03 1017.50 1016.92 1015.59 1013.70 1013.20 1012.91 1013.20 1013.11 1013.42 1013.65 1013.93 1013.90 1013.70 1013.61 1013.64 1013.66 1013.72 1013.83 1013.83 1014.09 1014.30 1014.53 1015.10 1015.48 1016.01 1016.79 1017.45 1018.07 1018.60 1019.32 1019.89 1020.53 1020.94 1021.34 1021.44 1021.80 1022.28 1021.83 1021.95 1022.52 1022.71 1022.72 1022.73 1022.93
1013.88 1014.85 1015.84 1017.07 1017.75 1017.93 1017.24 1015.27 1013.76 1013.15 1013.02 1013.09 1013.02 1013.29 1013.64 1013.84 1013.95 1013.97 1014.02 1013.87 1013.80 1013.89 1013.88 1014.02 1014.33 1014.40 1014.51 1014.86 1015.44 1015.92 1016.64 1017.37 1018.06 1018.47 1018.81 1019.47 1020.07 1020.53 1020.86 1021.25 1021.65 1021.44 1021.33 1021.50 1022.10 1022.32 1022.19 1022.32 1022.55
Thickness
5799 5798 5797 5786 5750 5737 5735 5747 5761 5756 5760 5777 5782 5771 5761 5762 5751 5730 5761 5764 5765 5764 5759 5757 5755 5756 5754 5750 5747 5747 5745 5744 5742 5741 5741 5741 5740 5739 5738 5737 5737 5737 5737 5737 5736 5736 5736 5736 5736
5796 5796 5789 5766 5732 5718 5727 5752 5751 5760 5771 5779 5780 5773 5765 5753 5763 5758 5759 5764 5764 5760 5757 5755 5753 5754 5750 5746 5745 5742 5741 5739 5738 5737 5736 5736 5734 5734 5733 5733 5733 5733 5733 5733 5732 5731 5731 5731 5732
5794 5794 5771 5744 5718 5718 5728 5756 5766 5772 5778 5777 5772 5777 5765 5756 5762 5762 5767 5764 5762 5758 5755 5754 5754 5751 5747 5744 5743 5739 5738 5737 5735 5733 5732 5731 5729 5729 5729 5729 5728 5729 5729 5729 5729 5728 5728 5728 5728
5785 5777 5760 5738 5733 5743 5751 5767 5773 5771 5777 5782 5774 5758 5769 5772 5765 5767 5768 5766 5761 5758 5758 5756 5751 5747 5743 5742 5740 5737 5737 5734 5733 5731 5729 5728 5727 5726 5724 5725 5725 5726 5726 5726 5727 5726 5725 5726 5726
5776 5760 5734 5728 5734 5748 5761 5776 5779 5772 5776 5774 5778 5758 5757 5768 5770 5768 5766 5764 5760 5756 5755 5753 5750 5746 5742 5739 5738 5734 5733 5730 5730 5728 5726 5725 5725 5723 5722 5721 5722 5723 5722 5724 5724 5723 5721 5722 5722
5755 5751 5723 5715 5734 5754 5764 5777 5781 5777 5779 5777 5772 5765 5759 5768 5766 5765 5765 5760 5759 5756 5754 5752 5752 5750 5745 5739 5738 5734 5730 5727 5727 5725 5723 5723 5721 5719 5719 5718 5720 5721 5720 5721 5719 5718 5718 5718 5717
5749 5736 5724 5728 5736 5746 5759 5777 5776 5781 5775 5772 5777 5755 5757 5761 5765 5767 5765 5761 5758 5753 5751 5750 5745 5745 5743 5738 5734 5729 5726 5724 5721 5720 5718 5718 5716 5716 5716 5715 5716 5715 5717 5715 5714 5714 5713 5712 5709
5749 5740 5728 5734 5729 5740 5764 5776 5782 5778 5774 5787 5783 5752 5751 5769 5769 5765 5760 5756 5754 5752 5749 5746 5741 5735 5733 5735 5730 5725 5722 5721 5718 5716 5713 5711 5710 5712 5713 5713 5712 5712 5711 5709 5709 5709 5708 5706 5705
5760 5721 5711 5736 5734 5750 5764 5769 5779 5785 5779 5779 5784 5777 5782 5776 5767 5761 5754 5750 5748 5749 5749 5745 5741 5736 5730 5729 5727 5723 5718 5716 5716 5713 5710 5708 5707 5707 5707 5707 5708 5707 5705 5705 5705 5702 5701 5700 5698
5742 5717 5723 5749 5751 5751 5765 5769 5772 5773 5777 5774 5781 5784 5781 5774 5766 5759 5754 5749 5746 5747 5745 5739 5737 5732 5729 5726 5723 5720 5717 5713 5712 5710 5708 5706 5705 5704 5703 5703 5702 5702 5701 5700 5698 5695 5695 5694 5692
5740 5727 5744 5756 5755 5760 5760 5767 5774 5773 5767 5787 5776 5779 5776 5770 5762 5758 5757 5754 5752 5749 5742 5738 5734 5731 5726 5722 5720 5719 5718 5714 5711 5708 5704 5702 5701 5701 5699 5698 5696 5695 5695 5695 5693 5690 5689 5687 5685
5739 5747 5751 5757 5762 5754 5758 5772 5769 5777 5791 5798 5795 5790 5781 5770 5764 5760 5757 5752 5746 5744 5742 5738 5735 5732 5729 5725 5722 5719 5715 5710 5706 5703 5701 5701 5697 5695 5695 5694 5692 5690 5691 5689 5687 5684 5682 5680 5678
5743 5750 5755 5758 5757 5757 5767 5765 5770 5777 5795 5796 5793 5784 5778 5773 5767 5761 5758 5754 5748 5742 5744 5740 5738 5732 5728 5723 5718 5712 5708 5704 5699 5694 5692 5693 5692 5690 5691 5691 5689 5687 5686 5684 5681 5679 5676 5673 5670
5749 5752 5756 5760 5764 5766 5760 5763 5772 5786 5791 5787 5785 5780 5778 5773 5769 5764 5758 5753 5749 5747 5745 5743 5737 5731 5725 5720 5716 5711 5707 5701 5697 5692 5686 5684 5686 5686 5685 5685 5684 5683 5680 5678 5676 5674 5670 5667 5664
5750 5741 5748 5761 5766 5767 5767 5758 5757 5783 5785 5781 5780 5780 5777 5773 5771 5772 5765 5756 5753 5752 5749 5744 5737 5732 5726 5723 5718 5711 5707 5701 5697 5691 5688 5683 5682 5681 5680 5677 5676 5675 5675 5673 5670 5669 5666 5662 5656
5737 5729 5718 5753 5757 5769 5764 5740 5774 5782 5778 5775 5777 5779 5775 5771 5772 5771 5767 5760 5755 5750 5742 5736 5738 5736 5732 5724 5715 5708 5703 5700 5695 5690 5686 5682 5678 5674 5672 5671 5668 5667 5667 5666 5665 5664 5661 5655 5650
5709 5708 5720 5729 5757 5753 5751 5744 5760 5770 5777 5772 5773 5777 5773 5770 5769 5774 5771 5766 5758 5751 5743 5734 5735 5734 5727 5718 5711 5700 5697 5695 5691 5685 5685 5682 5677 5670 5664 5663 5661 5661 5660 5659 5660 5657 5655 5648 5645
5712 5711 5714 5715 5742 5736 5724 5723 5739 5755 5756 5750 5755 5766 5771 5773 5778 5768 5767 5763 5755 5747 5741 5737 5732 5726 5722 5714 5709 5703 5695 5689 5685 5680 5681 5678 5674 5669 5664 5656 5654 5655 5654 5653 5652 5648 5647 5643 5641
5723 5716 5710 5723 5739 5725 5719 5729 5732 5745 5748 5745 5746 5748 5755 5756 5756 5751 5749 5750 5746 5740 5733 5725 5717 5709 5707 5704 5694 5688 5692 5683 5679 5676 5672 5671 5667 5666 5663 5654 5650 5648 5649 5647 5645 5641 5635 5633 5631
5720 5717 5715 5727 5739 5729 5729 5722 5731 5743 5744 5746 5744 5745 5754 5755 5743 5743 5741 5741 5736 5727 5718 5712 5704 5695 5689 5684 5680 5678 5671 5669 5673 5674 5669 5668 5665 5660 5657 5654 5644 5645 5641 5639 5637 5634 5629 5622 5619
5717 5719 5723 5725 5733 5727 5723 5711 5716 5737 5742 5746 5749 5754 5759 5756 5742 5740 5739 5735 5729 5720 5713 5708 5699 5688 5678 5673 5674 5669 5661 5660 5658 5662 5662 5661 5659 5657 5652 5646 5640 5637 5635 5629 5630 5629 5628 5619 5612
5719 5728 5732 5731 5717 5698 5711 5674 5705 5719 5726 5738 5744 5748 5750 5752 5753 5744 5742 5738 5728 5718 5713 5712 5701 5687 5674 5675 5666 5665 5669 5655 5655 5655 5656 5653 5654 5651 5648 5641 5635 5629 5626 5622 5620 5621 5620 5614 5607
5727 5735 5728 5722 5703 5702 5696 5675 5695 5707 5713 5726 5735 5744 5748 5748 5743 5740 5739 5731 5722 5712 5704 5702 5701 5693 5674 5676 5662 5672 5669 5657 5654 5648 5644 5643 5647 5647 5643 5637 5632 5623 5617 5615 5610 5615 5611 5608 5599
5735 5725 5705 5692 5684 5666 5686 5677 5679 5690 5709 5717 5731 5731 5732 5733 5731 5732 5729 5729 5728 5724 5716 5699 5702 5700 5692 5674 5671 5671 5676 5657 5650 5644 5640 5639 5638 5636 5634 5629 5626 5618 5611 5608 5602 5606 5604 5599 5591
5720 5696 5661 5665 5656 5662 5682 5675 5683 5709 5716 5718 5718 5719 5718 5723 5726 5724 5719 5720 5726 5726 5732 5708 5691 5695 5687 5673 5667 5668 5666 5658 5651 5646 5644 5636 5633 5626 5627 5623 5617 5611 5607 5601 5597 5599 5596 5591 5585
5705 5697 5664 5662 5649 5659 5678 5669 5685 5709 5716 5718 5719 5718 5716 5717 5715 5712 5710 5710 5712 5711 5712 5705 5700 5689 5687 5678 5670 5672 5665 5657 5654 5647 5645 5636 5630 5625 5622 5619 5610 5606 5603 5592 5594 5591 5587 5584 5578
5706 5681 5694 5663 5658 5654 5660 5682 5702 5714 5709 5706 5710 5715 5709 5706 5710 5709 5707 5703 5701 5702 5706 5703 5694 5695 5690 5682 5673 5668 5660 5653 5650 5645 5637 5629 5624 5620 5617 5612 5608 5604 5595 5592 5590 5583 5579 5576 5569
5707 5698 5677 5661 5656 5657 5656 5663 5668 5692 5697 5701 5704 5707 5703 5705 5704 5709 5707 5705 5703 5699 5695 5696 5695 5690 5686 5679 5672 5668 5660 5653 5645 5640 5633 5626 5619 5614 5610 5606 5604 5598 5593 5592 5586 5578 5572 5567 5561
5683 5678 5665 5659 5651 5640 5639 5653 5683 5691 5696 5694 5699 5703 5701 5699 5699 5703 5703 5702 5700 5698 5694 5694 5689 5684 5680 5674 5671 5665 5655 5649 5641 5636 5629 5622 5615 5610 5605 5603 5598 5593 5595 5590 5580 5574 5569 5564 5554
5689 5677 5661 5647 5657 5636 5634 5649 5693 5693 5694 5696 5698 5700 5702 5699 5698 5698 5697 5697 5696 5692 5691 5687 5681 5677 5675 5671 5665 5659 5652 5643 5635 5630 5626 5618 5613 5606 5602 5597 5592 5595 5593 5588 5576 5571 5568 5561 5551